Regional Weather Roundup
Issued by NWS Cleveland, OH

Home | Current Version | Previous Version | Graphics & Text | Print | Product List | Glossary On
Versions: 1 2 3 4 5 6 7 8 9 10 11 12 13 14 15 16 17 18 19 20 21 22 23 24 25 26 27 28 29 30 31 32 33 34 35 36 37 38 39 40 41 42 43 44 45 46 47 48 49 50
000
ASUS41 KCLE 230602
RWRCLE
OHIO REGIONAL WEATHER ROUNDUP
NATIONAL WEATHER SERVICE CLEVELAND, OH
200 AM EDT WED JUL 23 2014

NOTE: "FAIR" INDICATES FEW OR NO CLOUDS BELOW 12,000 FEET WITH NO
SIGNIFICANT WEATHER AND/OR OBSTRUCTIONS TO VISIBILITY.

OHZ001>008-015>018-024>027-034-035-043-044-230700-
   NORTHWEST OHIO

CITY           SKY/WX    TMP DP  RH WIND       PRES   REMARKS
DEFIANCE       LGT RAIN  76  69  79 SW5       29.98F
FINDLAY        CLEAR     72  67  84 SW6       29.99F
TOLEDO EXPRESS CLOUDY    76  68  76 SW14      29.96F
TOLEDO EXEC    MOCLDY    78  66  66 SW10      29.96F
LIMA           PTCLDY    75  67  76 S6        30.03S
$$

OHZ009>014-019>023-028>033-038-089-230700-
   NORTHEAST OHIO

CITY           SKY/WX    TMP DP  RH WIND       PRES   REMARKS
CLE-HOPKINS    PTCLDY    76  67  73 SW8       30.01F
CLE-LAKEFRONT  CLEAR     80  66  62 SW12      29.96F
CUY CO. ARPT   NOT AVBL
LORAIN-ELYRIA  PTCLDY    75  68  78 SW7       30.00F
ASHTABULA      CLEAR     73  68  84 SW6       29.99F
AKRON-CANTON   CLEAR     74  68  81 SW5       30.03S
WOOSTER        CLEAR     69  67  93 CALM      30.03S
MANSFIELD      CLEAR     73  67  81 SW5       30.04S
YOUNGSTOWN     PTCLDY    74  69  85 S6        30.02F
$$

OHZ042-051>053-060>062-070>072-077>081-230700-
  SOUTHWEST OHIO

CITY           SKY/WX    TMP DP  RH WIND       PRES   REMARKS
CINC-COVINGTON CLEAR     71  67  87 CALM      30.04S
CINC-LUNKEN    CLEAR     71  69  93 CALM      30.03S
HAMILTON       MOCLDY    71  69  93 CALM      30.04S
DAYTON         MOCLDY    73  67  81 W3        30.05S
WRIGHT-PAT AFB PTCLDY    73  67  83 N2        30.04R
DAYTON GENERAL MOCLDY    74  68  81 CALM      30.04S
WILMINGTON     CLEAR     72  67  84 CALM      30.04S
$$

OHZ036-037-039>041-045>050-054>059-063>069-073>076-082>088-230700-
  CENTRAL AND SOUTHEAST OHIO

CITY           SKY/WX    TMP DP  RH WIND       PRES   REMARKS
COLUMBUS       CLEAR     78  70  76 CALM      30.03R
OSU AIRPORT    CLEAR     75  68  78 SW5       30.03S
BOLTON FIELD   CLEAR     74  69  85 W3        30.04S
RICKENBACK AFB CLEAR     74  67  80 CALM      30.03R HAZE
NEWARK         CLEAR     71  68  90 W3        30.03R
MARION         CLEAR     75  66  73 SW7       30.02F
LANCASTER      CLEAR     70  68  93 CALM      30.04S
ZANESVILLE     PTCLDY    73  70  90 CALM      30.03S
NEW PHILLY     PTCLDY    71  69  93 CALM      30.03S FOG
$$



USA.gov is the U.S. government's official web portal to all federal, state and local government web resources and services.